This is the latest recevied weather packets stored in our database for station/object N4RCT. If no packets are shown the sender has not sent any weather packets the latest 10 day(s).
| Time | Temp. | Humidity | Pressure | Rain* | Wind** | Luminosity | Snow |
|---|---|---|---|---|---|---|---|
| 1777579698 | 20° C | 59% | 1012 hPa | 0 mm | - | 222 W/m² | - |
| 1777579397 | 20° C | 58% | 1012 hPa | 0 mm | - | 239 W/m² | - |
| 1777579092 | 20° C | 61% | 1012 hPa | 0 mm | - | 239 W/m² | - |
| 1777578792 | 20.56° C | 63% | 1011.8 hPa | 0 mm | - | 248 W/m² | - |
| 1777578488 | 20° C | 64% | 1012.1 hPa | 0 mm | - | 431 W/m² | - |
| 1777578183 | 20° C | 63% | 1012.1 hPa | 0 mm | - | 428 W/m² | - |
| 1777577878 | 20° C | 65% | 1012.3 hPa | 0 mm | - | 416 W/m² | - |
| 1777577574 | 20° C | 62% | 1012.5 hPa | 0 mm | - | 288 W/m² | - |
| 1777577271 | 20° C | 68% | 1012.3 hPa | 0 mm | - | 347 W/m² | - |
| 1777576967 | 20° C | 62% | 1012.3 hPa | 0 mm | - | 386 W/m² | - |
| 1777576664 | 20.56° C | 62% | 1012.3 hPa | 0 mm | - | 329 W/m² | - |
| 1777576363 | 20.56° C | 63% | 1012.6 hPa | 0 mm | - | 312 W/m² | - |
| 1777576060 | 20.56° C | 60% | 1012.4 hPa | 0 mm | - | 510 W/m² | - |
| 1777575756 | 20° C | 61% | 1012.4 hPa | 0 mm | - | 518 W/m² | - |
| 1777575452 | 20.56° C | 57% | 1012.2 hPa | 0 mm | - | 436 W/m² | - |
| 1777575148 | 20° C | 62% | 1012.1 hPa | 0 mm | - | 432 W/m² | - |
| 1777574844 | 20.56° C | 63% | 1012.2 hPa | 0 mm | - | 490 W/m² | - |
| 1777574542 | 20° C | 59% | 1012 hPa | 0 mm | - | 527 W/m² | - |
| 1777574238 | 20° C | 58% | 1011.8 hPa | 0 mm | - | 520 W/m² | - |
| 1777573933 | 20° C | 64% | 1012.1 hPa | 0 mm | - | 494 W/m² | - |
| 1777573628 | 20° C | 64% | 1012 hPa | 0 mm | - | 479 W/m² | - |
| 1777573325 | 20° C | 61% | 1012 hPa | 0 mm | - | 412 W/m² | - |
| 1777573020 | 20° C | 60% | 1012.1 hPa | 0 mm | - | 450 W/m² | - |
| 1777572716 | 19.44° C | 65% | 1012 hPa | 0 mm | - | 427 W/m² | - |
| 1777572411 | 20° C | 64% | 1012.1 hPa | 0 mm | - | 463 W/m² | - |
* Rain latest hour (hover to see other rain measurements)
** Current wind speed in m/s (hover to see current wind gust speed)